GW4453 Weather Reports


time (UTC)temp
C
wind
direction
speed
KPH
gust
KPH
rain 1hr
cm
rain 24hr
cm
rain mn
cm
humidity
%
barometer
mb
20260507212154 11 351 19.3 27.4 0.18 0.03 0.03 72 1018.5
20260507211651 12 6 14.5 16.1 0.00 0.00 0.00 59 1018.4
20260507211147 16 339 17.7 20.9 0.00 0.00 0.00 51 1018.2
20260507210645 15 294 3.2 3.2 0.00 0.00 0.00 56 1017.8
20260507210141 15 297 8.0 16.1 0.00 0.00 0.00 58 1017.8
20260507205638 15 300 22.5 29.0 0.00 0.00 0.00 60 1018.0
20260507205134 15 335 8.0 11.3 0.00 0.00 0.00 55 1017.9
20260507204631 15 281 11.3 14.5 0.00 0.00 0.00 55 1017.8
20260507204128 16 311 16.1 17.7 0.00 0.00 0.00 53 1017.8
20260507203626 15 273 14.5 20.9 0.00 0.00 0.00 55 1017.9
20260507203123 15 296 12.9 16.1 0.00 0.00 0.00 56 1017.9
20260507202619 15 307 17.7 22.5 0.00 0.00 0.00 54 1018.0
20260507202115 15 329 6.4 9.7 0.00 0.00 0.00 56 1017.8
20260507201610 15 296 4.8 9.7 0.00 0.00 0.00 55 1018.0
20260507201108 16 319 9.7 14.5 0.00 0.00 0.00 55 1017.9
20260507200603 15 302 16.1 17.7 0.00 0.00 0.00 56 1018.1
20260507200059 13 291 17.7 22.5 0.00 0.00 0.00 62 1018.0
20260507195557 13 291 8.0 12.9 0.00 0.00 0.00 62 1018.2
20260507195054 13 316 11.3 16.1 0.00 0.00 0.00 62 1018.2
20260507194550 14 267 17.7 22.5 0.00 0.00 0.00 61 1018.2
20260507194046 14 299 16.1 17.7 0.00 0.00 0.00 60 1018.2
20260507193543 14 294 14.5 17.7 0.00 0.00 0.00 60 1018.0
20260507193040 13 324 17.7 25.7 0.00 0.00 0.00 61 1018.1
20260507192536 13 299 16.1 22.5 0.00 0.00 0.00 61 1018.1
20260507192033 13 295 19.3 22.5 0.00 0.00 0.00 60 1018.2
20260507191529 13 303 19.3 24.1 0.00 0.00 0.00 60 1018.2
20260507191026 13 259 17.7 20.9 0.00 0.00 0.00 60 1018.4
20260507190523 14 309 14.5 20.9 0.00 0.00 0.00 58 1018.4
20260507190022 13 300 25.7 33.8 0.00 0.00 0.00 58 1018.4
20260507185520 14 285 19.3 27.4 0.00 0.00 0.00 59 1018.1
20260507185016 14 327 8.0 11.3 0.00 0.00 0.00 56 1018.1
20260507184515 14 258 29.0 33.8 0.00 0.00 0.00 58 1018.4
20260507184012 13 277 16.1 17.7 0.00 0.00 0.00 58 1018.1
20260507183508 14 276 16.1 24.1 0.00 0.00 0.00 58 1018.4
20260507183005 13 287 17.7 20.9 0.00 0.00 0.00 57 1018.2
20260507182501 14 296 14.5 16.1 0.00 0.00 0.00 55 1018.1
20260507181957 15 356 8.0 14.5 0.00 0.00 0.00 54 1018.0
20260507181454 15 270 24.1 27.4 0.00 0.00 0.00 53 1018.2
20260507180950 15 259 3.2 3.2 0.00 0.00 0.00 52 1018.4
20260507180447 15 290 22.5 25.7 0.00 0.00 0.00 51 1018.1
20260507175943 15 305 11.3 16.1 0.00 0.00 0.00 51 1018.2
20260507175440 15 276 9.7 12.9 0.00 0.00 0.00 53 1018.0
20260507174938 15 295 14.5 17.7 0.00 0.00 0.00 54 1017.9
20260507174434 14 338 8.0 11.3 0.00 0.00 0.00 54 1018.0
20260507173932 13 300 8.0 9.7 0.00 0.00 0.00 56 1018.1
20260507173429 14 280 12.9 14.5 0.00 0.00 0.00 54 1018.1
20260507172926 13 312 9.7 14.5 0.00 0.00 0.00 55 1018.1
20260507172422 13 295 8.0 11.3 0.00 0.00 0.00 58 1018.1
20260507171919 12 309 9.7 11.3 0.00 0.00 0.00 60 1017.9
20260507171415 12 295 14.5 16.1 0.00 0.00 0.00 62 1018.1
20260507170912 13 299 14.5 17.7 0.00 0.00 0.00 60 1018.2
20260507170409 13 296 14.5 16.1 0.00 0.00 0.00 54 1018.2
20260507165905 14 303 11.3 20.9 0.00 0.00 0.00 49 1018.0
20260507165401 13 307 4.8 8.0 0.00 0.00 0.00 50 1018.1
20260507164857 13 286 8.0 9.7 0.00 0.00 0.00 52 1017.9
20260507164354 13 291 6.4 8.0 0.00 0.00 0.00 53 1018.1
20260507163851 13 330 4.8 8.0 0.00 0.00 0.00 56 1018.0
20260507163349 13 314 3.2 3.2 0.00 0.00 0.00 56 1018.0
20260507162845 13 15 8.0 11.3 0.00 0.00 0.00 57 1018.0
20260507162340 14 19 4.8 4.8 0.00 0.00 0.00 50 1017.8
20260507161838 15 280 11.3 12.9 0.00 0.00 0.00 47 1017.9
20260507161334 14 351 6.4 8.0 0.00 0.00 0.00 48 1018.0
20260507160831 15 7 8.0 8.0 0.00 0.00 0.00 47 1017.7
20260507160326 14 346 14.5 17.7 0.00 0.00 0.00 45 1017.8
20260507155823 13 5 4.8 8.0 0.00 0.00 0.00 41 1017.9
20260507155319 13 349 8.0 9.7 0.00 0.00 0.00 41 1017.7
20260507154816 15 31 6.4 9.7 0.00 0.00 0.00 38 1017.7
20260507154313 15 11 1.6 3.2 0.00 0.00 0.00 39 1018.0
20260507153810 13 235 4.8 4.8 0.00 0.00 0.00 39 1017.9
20260507153306 12 5 4.8 4.8 0.00 0.00 0.00 40 1018.0
20260507152803 12 340 6.4 8.0 0.00 0.00 0.00 40 1017.7
20260507152259 11 182 1.6 1.6 0.00 0.00 0.00 42 1018.0
20260507151755 10 181 3.2 3.2 0.00 0.00 0.00 45 1018.0
20260507151252 8 168 4.8 4.8 0.00 0.00 0.00 48 1018.0
20260507150749 8 167 1.6 3.2 0.00 0.00 0.00 48 1018.5
20260507150246 8 233 3.2 3.2 0.00 0.00 0.00 47 1018.4
20260507145741 8 28 0.0 1.6 0.00 0.00 0.00 47 1018.4
20260507145238 7 76 0.0 0.0 0.00 0.00 0.00 47 1018.6
20260507144735 6 56 0.0 1.6 0.00 0.00 0.00 48 1018.4
20260507144233 6 51 0.0 0.0 0.00 0.00 0.00 48 1018.6
20260507143729 6 48 4.8 4.8 0.00 0.00 0.00 49 1018.5
20260507143227 6 56 4.8 4.8 0.00 0.00 0.00 50 1018.4
20260507142723 6 29 1.6 3.2 0.00 0.00 0.00 50 1018.4
20260507142219 6 153 0.0 0.0 0.00 0.00 0.00 49 1018.2
20260507141715 6 154 1.6 1.6 0.00 0.00 0.00 50 1018.0
20260507141213 6 170 0.0 1.6 0.00 0.00 0.00 50 1018.1
20260507140708 5 254 1.6 1.6 0.00 0.00 0.00 51 1018.2
20260507140206 5 254 1.6 1.6 0.00 0.00 0.00 51 1018.1
20260507135703 5 252 4.8 4.8 0.00 0.00 0.00 52 1018.0
20260507135201 5 214 3.2 3.2 0.00 0.00 0.00 50 1018.0
20260507134657 5 190 0.0 0.0 0.00 0.00 0.00 50 1017.8
20260507134153 4 165 1.6 1.6 0.00 0.00 0.00 50 1017.6
20260507133649 4 141 1.6 1.6 0.00 0.00 0.00 50 1017.7
20260507133146 3 64 0.0 0.0 0.00 0.00 0.00 51 1017.9
20260507132644 3 82 0.0 1.6 0.00 0.00 0.00 51 1017.9
20260507132139 3 154 0.0 1.6 0.00 0.00 0.00 52 1017.8
20260507131637 2 53 3.2 3.2 0.00 0.00 0.00 53 1017.9
20260507131134 2 215 3.2 3.2 0.00 0.00 0.00 54 1017.6
20260507130630 2 46 4.8 4.8 0.00 0.00 0.00 54 1017.7
20260507130129 2 71 0.0 1.6 0.00 0.00 0.00 53 1017.6
20260507125627 3 54 9.7 11.3 0.00 0.00 0.00 54 1017.8
20260507125124 2 233 8.0 9.7 0.00 0.00 0.00 54 1017.3
20260507124620 1 12 14.5 14.5 0.00 0.00 0.00 58 1017.8
20260507124118 1 133 3.2 3.2 0.00 0.00 0.00 57 1017.4
20260507123616 1 108 0.0 0.0 0.00 0.00 0.00 56 1017.3
20260507123113 1 97 0.0 0.0 0.00 0.00 0.00 58 1017.3
20260507122608 0 71 1.6 1.6 0.00 0.00 0.00 60 1017.4
20260507122104 0 71 0.0 0.0 0.00 0.00 0.00 64 1017.2
20260507121601 0 66 1.6 1.6 0.00 0.00 0.00 65 1017.2
20260507121056 0 75 0.0 0.0 0.00 0.00 0.00 66 1017.1
20260507120552 0 37 0.0 0.0 0.00 0.00 0.00 65 1017.1
20260507120049 -1 75 0.0 0.0 0.00 0.00 0.00 62 1017.1
20260507115546 -1 75 0.0 0.0 0.00 0.00 0.00 61 1016.8
20260507115042 -1 47 0.0 0.0 0.00 0.00 0.00 60 1016.9
20260507114537 -2 35 0.0 0.0 0.00 0.00 0.00 64 1017.0
20260507114035 -2 21 1.6 1.6 0.00 0.00 0.00 68 1016.9
20260507113532 -3 20 1.6 1.6 0.00 0.00 0.00 71 1016.9
20260507113029 -3 21 1.6 1.6 0.00 0.00 0.00 74 1016.8
20260507112527 -3 46 0.0 0.0 0.00 0.00 0.00 75 1016.8
20260507112023 -3 54 3.2 3.2 0.00 0.00 0.00 75 1016.8
20260507111521 -3 144 0.0 0.0 0.00 0.00 0.00 75 1016.4
20260507111017 -3 150 1.6 1.6 0.00 0.00 0.00 75 1016.9
20260507110514 -3 129 0.0 0.0 0.00 0.00 0.00 73 1016.8
20260507110010 -3 192 1.6 1.6 0.00 0.00 0.00 73 1017.0
20260507105507 -3 324 1.6 1.6 0.00 0.00 0.00 74 1016.8
20260507105003 -4 240 4.8 4.8 0.00 0.00 0.00 75 1017.0
20260507104501 -3 183 3.2 3.2 0.00 0.00 0.00 74 1017.1
20260507103956 -3 55 0.0 0.0 0.00 0.00 0.00 70 1017.1
20260507103453 -3 54 0.0 1.6 0.00 0.00 0.00 70 1017.2
20260507102949 -3 49 0.0 0.0 0.00 0.00 0.00 71 1017.1
20260507102446 -3 50 1.6 3.2 0.00 0.00 0.00 72 1017.1
20260507101943 -3 69 0.0 0.0 0.00 0.00 0.00 70 1017.0
20260507101437 -3 43 0.0 0.0 0.00 0.00 0.00 67 1017.1
20260507100934 -3 15 0.0 0.0 0.00 0.00 0.00 66 1016.9
20260507100432 -3 14 1.6 1.6 0.00 0.00 0.00 66 1017.1
20260507095930 -3 13 0.0 0.0 0.00 0.00 0.00 66 1016.9
20260507095427 -3 53 1.6 1.6 0.00 0.00 0.00 67 1017.0
20260507094924 -3 55 1.6 1.6 0.00 0.00 0.00 67 1016.9
20260507094420 -3 55 0.0 0.0 0.00 0.00 0.00 66 1016.9
20260507093917 -3 93 0.0 0.0 0.00 0.00 0.00 66 1016.9
20260507093415 -3 109 1.6 1.6 0.00 0.00 0.00 65 1016.9
20260507092914 -3 111 0.0 1.6 0.00 0.00 0.00 66 1017.0
20260507092409 -3 148 3.2 3.2 0.00 0.00 0.00 65 1017.0
20260507091906 -2 24 0.0 0.0 0.00 0.00 0.00 61 1016.8
20260507091402 -2 28 0.0 1.6 0.00 0.00 0.00 61 1017.0
20260507090858 -2 219 0.0 1.6 0.00 0.00 0.00 62 1016.9
20260507090354 -2 219 0.0 0.0 0.00 0.00 0.00 61 1017.0
20260507085852 -2 231 1.6 1.6 0.00 0.00 0.00 61 1016.8
20260507085348 -1 288 3.2 3.2 0.00 0.00 0.00 57 1016.4
20260507084846 -1 9 1.6 1.6 0.00 0.00 0.00 58 1016.6
20260507084342 -1 290 1.6 1.6 0.00 0.00 0.00 59 1016.4
20260507083840 -1 316 3.2 3.2 0.00 0.00 0.00 58 1016.6
20260507083336 -1 322 1.6 1.6 0.00 0.00 0.00 59 1016.6
20260507082832 -1 263 3.2 3.2 0.00 0.00 0.00 59 1016.4
20260507082328 -1 324 3.2 3.2 0.00 0.00 0.00 58 1016.3
20260507081825 -1 9 1.6 1.6 0.00 0.00 0.00 59 1016.4
20260507081321 -1 22 0.0 1.6 0.00 0.00 0.00 59 1016.3
20260507080818 -2 22 0.0 1.6 0.00 0.00 0.00 60 1016.3
20260507080314 -2 22 0.0 1.6 0.00 0.00 0.00 60 1016.6
20260507075809 -2 10 1.6 1.6 0.00 0.00 0.00 61 1016.5
20260507075307 -2 336 1.6 1.6 0.00 0.00 0.00 62 1016.3
20260507074803 -2 3 1.6 1.6 0.00 0.00 0.00 64 1016.4
20260507074301 -2 325 1.6 1.6 0.00 0.00 0.00 62 1016.8
20260507073757 -2 285 3.2 3.2 0.00 0.00 0.00 63 1016.6
20260507073254 -2 249 3.2 3.2 0.00 0.00 0.00 62 1016.5
20260507072751 -2 231 4.8 4.8 0.00 0.00 0.00 61 1016.4
20260507072248 -1 242 4.8 4.8 0.00 0.00 0.00 60 1016.8
20260507071746 -1 233 3.2 3.2 0.00 0.00 0.00 57 1016.8
20260507071242 -1 335 1.6 1.6 0.00 0.00 0.00 57 1016.6
20260507070739 -1 4 1.6 1.6 0.00 0.00 0.00 57 1016.6
20260507070236 -1 290 1.6 1.6 0.00 0.00 0.00 59 1016.8
20260507065732 -1 235 3.2 3.2 0.00 0.00 0.00 57 1016.8
20260507065230 -1 309 3.2 3.2 0.00 0.00 0.00 58 1017.0
20260507064727 0 250 4.8 4.8 0.00 0.00 0.00 57 1017.1
20260507064226 0 245 4.8 4.8 0.00 0.00 0.00 55 1017.1
20260507063722 0 223 1.6 3.2 0.00 0.00 0.00 54 1017.3
20260507063219 0 217 3.2 3.2 0.00 0.00 0.00 54 1017.1
20260507062716 -1 278 1.6 1.6 0.00 0.00 0.00 55 1017.2
20260507062214 -1 33 0.0 0.0 0.00 0.00 0.00 57 1017.2
20260507061711 -1 249 3.2 3.2 0.00 0.00 0.00 57 1017.2
20260507061209 -1 239 3.2 3.2 0.00 0.00 0.00 59 1017.2
20260507060707 -1 291 1.6 3.2 0.00 0.00 0.00 59 1017.1
20260507060203 -1 242 4.8 4.8 0.00 0.00 0.00 57 1017.4
20260507055659 -1 224 8.0 8.0 0.00 0.00 0.00 57 1017.1
20260507055155 -1 246 9.7 11.3 0.00 0.00 0.00 60 1017.2
20260507054651 -1 219 4.8 4.8 0.00 0.00 0.00 56 1017.3
20260507054148 0 358 3.2 3.2 0.00 0.00 0.00 54 1017.2
20260507053646 0 356 1.6 3.2 0.00 0.00 0.00 54 1017.4
20260507053144 0 21 1.6 1.6 0.00 0.00 0.00 53 1017.4
20260507052643 0 251 1.6 1.6 0.00 0.00 0.00 54 1017.7
20260507052138 0 235 1.6 1.6 0.00 0.00 0.00 52 1017.4
20260507051636 0 266 3.2 3.2 0.00 0.00 0.00 52 1017.6
20260507051132 0 18 1.6 1.6 0.00 0.00 0.00 53 1017.6
20260507050629 -1 13 1.6 1.6 0.00 0.00 0.00 56 1017.4
20260507050126 0 30 0.0 0.0 0.00 0.00 0.00 55 1017.6
20260507045623 0 20 0.0 0.0 0.00 0.00 0.00 53 1017.7
20260507045120 0 338 1.6 1.6 0.00 0.00 0.00 54 1017.6
20260507044617 -1 286 1.6 1.6 0.00 0.00 0.00 56 1017.3
20260507044114 -1 219 3.2 3.2 0.00 0.00 0.00 55 1017.8
20260507043609 0 243 4.8 4.8 0.00 0.00 0.00 55 1017.4
20260507043107 0 246 3.2 3.2 0.00 0.00 0.00 55 1017.8
20260507042603 0 233 8.0 8.0 0.00 0.00 0.00 55 1017.7
20260507042058 0 236 4.8 4.8 0.00 0.00 0.00 56 1017.6
20260507041555 0 233 3.2 3.2 0.00 0.00 0.00 53 1017.8
20260507041052 0 253 3.2 3.2 0.00 0.00 0.00 53 1017.4
20260507040549 0 252 4.8 4.8 0.00 0.00 0.00 53 1017.6
20260507040045 0 241 1.6 3.2 0.00 0.00 0.00 52 1017.7
20260507035541 0 229 4.8 4.8 0.00 0.00 0.00 50 1017.7
20260507035038 0 223 6.4 8.0 0.00 0.00 0.00 50 1017.3
20260507034534 1 233 3.2 3.2 0.00 0.00 0.00 49 1017.6
20260507034032 1 245 1.6 1.6 0.00 0.00 0.00 48 1017.6
20260507033530 1 227 3.2 3.2 0.00 0.00 0.00 49 1017.6
20260507033027 1 236 3.2 3.2 0.00 0.00 0.00 47 1017.6
20260507032524 1 292 3.2 3.2 0.00 0.00 0.00 49 1017.8
20260507032020 2 279 1.6 1.6 0.00 0.00 0.00 46 1017.4
20260507031516 1 279 3.2 3.2 0.00 0.00 0.00 46 1017.4
20260507031014 1 324 1.6 1.6 0.00 0.00 0.00 51 1017.7
20260507030511 1 192 1.6 1.6 0.00 0.00 0.00 51 1017.7
20260507030008 2 191 0.0 0.0 0.00 0.00 0.00 49 1017.8
20260507025505 2 193 0.0 1.6 0.00 0.00 0.00 48 1017.6
20260507025003 3 194 1.6 1.6 0.00 0.00 0.00 48 1017.7
20260507024500 3 193 1.6 3.2 0.00 0.00 0.00 40 1017.6
20260507023956 5 193 1.6 1.6 0.00 0.00 0.00 38 1017.7
20260507023452 6 209 0.0 0.0 0.00 0.00 0.00 37 1017.4
20260507022949 6 211 1.6 3.2 0.00 0.00 0.00 35 1017.6
20260507022447 6 217 4.8 4.8 0.00 0.00 0.00 36 1017.9
20260507021942 7 37 0.0 0.0 0.00 0.00 0.00 33 1017.6
20260507021437 8 39 0.0 0.0 0.00 0.00 0.00 30 1017.4
20260507020936 9 35 0.0 0.0 0.00 0.00 0.00 29 1017.8
20260507020432 9 34 0.0 0.0 0.00 0.00 0.00 29 1018.0
20260507015929 10 29 0.0 0.0 0.00 0.00 0.00 28 1017.8
20260507015428 10 30 0.0 1.6 0.00 0.00 0.00 27 1018.0
20260507014924 11 23 1.6 1.6 0.00 0.00 0.00 27 1018.0
20260507014420 11 18 1.6 1.6 0.00 0.00 0.00 26 1017.8
20260507013917 11 347 4.8 4.8 0.00 0.00 0.00 25 1018.1
20260507013414 11 14 3.2 3.2 0.00 0.00 0.00 25 1018.0
20260507012912 11 346 4.8 4.8 0.00 0.00 0.00 24 1018.0
20260507012408 11 41 3.2 3.2 0.00 0.00 0.00 24 1017.9
20260507011905 12 316 1.6 3.2 0.00 0.00 0.00 23 1017.9
20260507011401 12 37 1.6 1.6 0.00 0.00 0.00 23 1018.0
20260507010855 12 5 3.2 3.2 0.00 0.00 0.00 22 1018.0
20260507010351 12 277 3.2 3.2 0.00 0.00 0.00 23 1018.0
20260507005849 13 330 4.8 8.0 0.00 0.00 0.00 22 1017.8
20260507005345 12 299 8.0 9.7 0.00 0.00 0.00 22 1018.0
20260507004842 12 272 6.4 8.0 0.00 0.00 0.00 22 1018.1
20260507004339 12 264 11.3 12.9 0.00 0.00 0.00 21 1018.0
20260507003836 12 289 11.3 12.9 0.00 0.00 0.00 21 1018.1
20260507003332 12 282 9.7 12.9 0.00 0.00 0.00 22 1017.9
20260507002827 12 291 8.0 12.9 0.00 0.00 0.00 22 1018.4
20260507002323 12 297 6.4 8.0 0.00 0.00 0.00 23 1018.4
20260507001821 12 269 11.3 14.5 0.00 0.00 0.00 25 1018.2
20260507001318 12 243 4.8 4.8 0.00 0.00 0.00 23 1018.1
20260507000814 12 267 8.0 11.3 0.00 0.00 0.00 23 1018.4
20260507000310 12 258 11.3 12.9 0.00 0.00 0.00 22 1018.2
20260506235806 12 333 11.3 14.5 0.00 0.00 0.00 22 1018.5
20260506235306 12 2 4.8 4.8 0.00 0.00 0.00 22 1018.5
20260506234759 12 239 9.7 12.9 0.00 0.00 0.00 23 1018.2
20260506234256 12 248 12.9 14.5 0.00 0.00 0.00 22 1018.2
20260506233754 12 275 8.0 9.7 0.00 0.00 0.00 22 1018.5
20260506233250 12 221 3.2 3.2 0.00 0.00 0.00 21 1018.6
20260506232747 13 286 11.3 14.5 0.00 0.00 0.00 21 1018.7
20260506232242 13 253 8.0 9.7 0.00 0.00 0.00 21 1018.6
20260506231739 12 305 8.0 11.3 0.00 0.00 0.00 22 1018.8
20260506231238 12 265 9.7 11.3 0.00 0.00 0.00 21 1018.8
20260506230734 12 269 8.0 11.3 0.00 0.00 0.00 22 1018.8
20260506230231 12 301 6.4 8.0 0.00 0.00 0.00 22 1018.9
20260506225728 12 306 9.7 11.3 0.00 0.00 0.00 21 1019.1
20260506225225 12 320 9.7 11.3 0.00 0.00 0.00 22 1019.4
20260506224721 12 290 11.3 14.5 0.00 0.00 0.00 21 1019.5
20260506224218 12 283 16.1 22.5 0.00 0.00 0.00 22 1019.5
20260506223714 11 276 9.7 12.9 0.00 0.00 0.00 22 1019.6
20260506223210 12 278 8.0 9.7 0.00 0.00 0.00 22 1019.9
20260506222708 12 293 19.3 24.1 0.00 0.00 0.00 21 1019.8
20260506222203 12 293 12.9 14.5 0.00 0.00 0.00 23 1020.1
20260506221701 12 330 12.9 20.9 0.00 0.00 0.00 22 1020.1
20260506221159 12 244 9.7 12.9 0.00 0.00 0.00 22 1020.3
20260506220655 11 293 8.0 9.7 0.00 0.00 0.00 23 1020.3
20260506220150 11 358 8.0 9.7 0.00 0.00 0.00 23 1020.3
20260506215647 11 328 9.7 14.5 0.00 0.00 0.00 23 1020.4
20260506215143 12 280 17.7 22.5 0.00 0.00 0.00 23 1020.6
20260506214640 12 317 17.7 22.5 0.00 0.00 0.00 23 1020.5
20260506214137 11 275 25.7 32.2 0.00 0.00 0.00 24 1020.5
20260506213636 12 291 19.3 27.4 0.00 0.00 0.00 22 1020.5
20260506213132 11 279 19.3 20.9 0.00 0.00 0.00 23 1020.6
20260506212630 12 257 12.9 14.5 0.00 0.00 0.00 23 1020.5